Retour au catalogue

STARLINK-1327

ActifCommunicationsVLEO
NORAD 45555·PAYLOAD·🇺🇸 United States

Lancé Apr 22, 2020 depuis Cape Canaveral Space Force Station

Loading…

Prochains Passages (prochaines 24 heures)

TLE

FraisSource: CelesTrak SupGP

Époque: Sep 14, 2026, 13:13 UTC

1 45555C 20025AA  26257.55118056  .00073014  00000+0  27600-3 0  2575
2 45555  53.0327 212.8506 0005887  62.3924 340.5360 15.86913457    15

Suivez STARLINK-1327 en temps réel avec AllMySat

Download on the App Store